Flag for Vietnam Weather past 2 weeks in Hanoi, Vietnam

Now
82 °F

Partly sunny.


Feels Like: 86 °F
Forecast: 76 / 84 °F
Wind: 9 mph from Northeast

Location: Ha Noi Airport

Current Time: Jul 5, 2015 at 10:37:41 AM

Latest Report: Jul 5, 2015 at 9:30 AM


Visibility: N/A

Pressure: 29.68 "Hg

Humidity: 66%

Dew point: 70 °F

Location of HanoiLocation

Historic Weather in Hanoi — Graph

°F

Hanoi temperature yesterday

Maximum temperature yesterday: 93 °F (at 10:30 AM)
Minimum temperature yesterday: 77 °F (at 11:30 PM)
Average temperature yesterday: 88 °F

Past Weeks' High & Low Weather Summary

 TemperatureHumidityPressure
High102 °F (Jul 1, 3:00 PM)100% (Jun 22, 5:00 AM)29.74 "Hg (Jun 22, 5:00 AM)
Low75 °F (Jul 5, 12:00 AM)35% (Jun 30, 1:30 PM)29.33 "Hg (Jun 24, 4:00 PM)
Average89 °F67%29.55 "Hg
* Reported Jun 20 9:00 AM — Jul 5 9:30 AM, Hanoi, Weather by CustomWeather, © 2015

Note: Actual official high and low records may vary slightly from our data, if they occured in-between our weather recording intervals... More about our weather records

Advertising

Hanoi weather history for previous 24 hours

 ConditionsComfort  
Time TempWeatherWind HumidityBarometerVisibility
9:30 AM
Sun, Jul 5
82 °FPartly sunny.9 mph66%29.68 "HgN/A
9:00 AM82 °FPartly sunny.12 mph66%29.65 "HgN/A
8:30 AM82 °FPartly sunny.9 mph66%29.65 "HgN/A
8:00 AM82 °FPartly sunny.9 mph66%29.65 "HgN/A
7:30 AM82 °FPartly sunny.12 mph66%29.62 "HgN/A
7:00 AM81 °FPartly sunny.5 mph74%29.62 "HgN/A
6:30 AM81 °FPartly sunny.5 mph79%29.62 "HgN/A
6:00 AM81 °FBroken clouds.6 mph74%29.62 "HgN/A
5:30 AM81 °FBroken clouds.5 mph79%29.62 "HgN/A
5:00 AM79 °FPartly cloudy.6 mph94%29.59 "HgN/A
4:30 AM79 °FPartly cloudy.5 mph94%29.59 "HgN/A
4:00 AM79 °FRain. Partly cloudy.1 mph94%29.59 "Hg3 mi
3:30 AM79 °FRain. Partly cloudy.3 mph94%29.59 "Hg3 mi
3:00 AM77 °FRain. Partly cloudy.5 mph94%29.59 "Hg5 mi
2:30 AM77 °FLight rain. Partly cloudy.6 mph94%29.59 "HgN/A
2:00 AM77 °FLight rain. Partly cloudy.6 mph94%29.59 "HgN/A
1:30 AM77 °FLight rain. Passing clouds.6 mph100%29.56 "HgN/A
1:00 AM77 °FStrong thunderstorms. Passing clouds.12 mph94%29.59 "Hg2 mi
12:30 AM75 °FHeavy rain. Passing clouds.2 mph100%29.62 "Hg1 mi
12:00 AM75 °FRain. Passing clouds.9 mph94%29.62 "Hg3 mi
11:30 PM
Sat, Jul 4
77 °FRain. Passing clouds.15 mph89%29.62 "Hg4 mi
11:00 PM84 °FLight rain. Passing clouds.5 mph79%29.62 "HgN/A
10:30 PM86 °FLight rain. Passing clouds.3 mph70%29.62 "HgN/A
10:00 PM86 °FPassing clouds.3 mph70%29.62 "HgN/A
9:30 PM86 °FPassing clouds.5 mph70%29.59 "HgN/A
9:00 PM86 °FPassing clouds.2 mph70%29.59 "HgN/A
8:30 PM86 °FPassing clouds.5 mph75%29.59 "Hg5 mi
8:00 PM86 °FPassing clouds.3 mph70%29.56 "Hg5 mi
7:30 PM84 °FPassing clouds.6 mph79%29.53 "Hg6 mi
7:00 PM84 °FPassing clouds.5 mph74%29.53 "Hg6 mi
6:30 PM86 °FPartly sunny.7 mph66%29.53 "HgN/A
6:00 PM86 °FPartly sunny.5 mph66%29.50 "Hg5 mi
5:30 PM86 °FPartly sunny.7 mph66%29.53 "Hg6 mi
5:00 PM88 °FPartly sunny.6 mph62%29.53 "HgN/A
4:30 PM90 °FPartly sunny.7 mph63%29.50 "HgN/A
4:00 PM90 °FPartly sunny.9 mph63%29.50 "HgN/A
3:30 PM90 °FPartly sunny.10 mph59%29.50 "HgN/A
3:00 PM91 °FPartly sunny.12 mph59%29.50 "HgN/A
2:30 PM91 °FPartly sunny.13 mph56%29.50 "HgN/A
2:00 PM91 °FPartly sunny.13 mph56%29.50 "HgN/A
1:30 PM91 °FSunny.14 mph56%29.50 "Hg10 mi
1:00 PM91 °FSunny.15 mph59%29.50 "Hg10 mi
12:30 PM91 °FPartly sunny.12 mph63%29.53 "HgN/A
12:00 PM93 °FPartly sunny.12 mph59%29.53 "HgN/A
11:30 AM93 °FBroken clouds.12 mph59%29.53 "HgN/A
11:00 AM93 °FPartly sunny.7 mph59%29.53 "HgN/A
10:30 AM93 °FPartly sunny.8 mph59%29.53 "HgN/A
10:00 AM91 °FPartly sunny.8 mph63%29.53 "HgN/A
Weather by CustomWeather, © 2015

See weather overviewHow to use our weather pages